Location: *
(49.5667°N, 1.3667°W)
Time: 19:06:54
(UTC+00:00)

Okean 1 Rocket - Pass Details

Date: 20 September 2019
Orbit: 608 x 633 km, 82.5° (Epoch: 23 October)

Event Time Altitude Azimuth Distance (km) Brightness Sun altitude
Rises 19:31:44 0° 200° (SSW) 2,857 6.5 -14.0°
Reaches altitude 10° 19:33:58 10° 204° (SSW) 1,960 5.7 -14.4°
Maximum altitude 19:38:14 56° 283° (WNW) 736 3.8 -15.0°
Drops below altitude 10° 19:42:34 10° 2° (N) 1,987 5.9 -15.7°
Sets 19:44:51 0° 7° (N) 2,902 6.7 -16.0°
